Weather History for Franklin, NC

Change the Weather History Date:

Tuesday, February 25, 2014

  Actual Average (KTOC) Record (KTOC)
Temperature  
Mean Temperature 42 °F -  
Max Temperature 57 °F 59 °F 70 °F (2014)
Min Temperature 26 °F 35 °F 39 °F (2014)
Degree Days  
Heating Degree Days 24    
Moisture  
Dew Point 24 °F    
Average Humidity 53    
Maximum Humidity 86    
Minimum Humidity 28    
Precipitation  
Precipitation 0.00 in - - ()
Sea Level Pressure  
Sea Level Pressure 30.02 in    
Wind  
Wind Speed 2 mph (NW)    
Max Wind Speed 12 mph    
Max Gust Speed 20 mph    
Visibility 10 miles    
Events Rain    
Averages and records for this station are not official NWS values.
T = Trace of Precipitation, MM = Missing Value Source: NWS Daily Summary

Daily Weather History Graph

Daily Weather History Graph

Search for Another Location

Airport:

Trip Planner

Search our weather history database for the weather conditions in past years. The results will help you decide how hot, cold, wet, or windy it might be!

Date:

Astronomy

Feb. 25, 2014 Rise Set
Actual Time 7:08 AM EST 6:25 PM EST
Civil Twilight 6:42 AM EST 6:51 PM EST
Nautical Twilight 6:13 AM EST 7:20 PM EST
Astronomical Twilight 5:43 AM EST 7:50 PM EST
Moon 3:56 AM EST (2/25) 2:36 PM EST (2/25)
Length of Visible Light 12h 08m
Length of Day
11h 17m
Waning Crescent, 18% of the Moon is Illuminated
Feb 25
Waning Crescent
Mar 1
New
Mar 8
First Quarter
Mar 16
Full
Mar 23
Last Quarter

Hourly Weather History & Observations

Time (EST) Temp. Windchill Dew Point Humidity Pressure Visibility Wind Dir Wind Speed Gust Speed Precip Events Conditions
12:15 AM 28.4 °F - 23.7 °F 83% 30.11 in 10.0 mi Calm Calm - N/A   Clear
12:35 AM 28.2 °F - 24.6 °F 86% 30.11 in 10.0 mi Calm Calm - N/A   Clear
12:55 AM 28.2 °F - 24.1 °F 84% 30.10 in 10.0 mi Calm Calm - N/A   Clear
1:15 AM 26.6 °F - 23.0 °F 86% 30.10 in 10.0 mi Calm Calm - N/A   Scattered Clouds
1:35 AM 27.3 °F - 23.2 °F 84% 30.10 in 10.0 mi Calm Calm - N/A   Mostly Cloudy
1:55 AM 27.3 °F - 22.8 °F 83% 30.09 in 10.0 mi Calm Calm - N/A   Mostly Cloudy
2:15 AM 28.0 °F - 23.4 °F 83% 30.09 in 10.0 mi Calm Calm - N/A   Mostly Cloudy
2:30 AM 28.8 °F - 24.8 °F 85% 30.09 in 10.0 mi Calm Calm - N/A   Overcast
2:55 AM 29.7 °F - 24.3 °F 80% 30.08 in 10.0 mi Calm Calm - N/A   Overcast
3:10 AM 29.7 °F - 25.5 °F 85% 30.07 in 10.0 mi Calm Calm - N/A   Mostly Cloudy
4:55 AM 31.1 °F - 26.2 °F 82% 30.06 in 10.0 mi Calm Calm - N/A   Mostly Cloudy
5:15 AM 32.0 °F - 25.7 °F 78% 30.06 in 10.0 mi Calm Calm - N/A   Overcast
5:35 AM 32.2 °F - 26.1 °F 78% 30.05 in 10.0 mi Calm Calm - N/A   Overcast
5:55 AM 32.4 °F - 26.4 °F 79% 30.06 in 10.0 mi Calm Calm - N/A   Overcast
6:15 AM 32.9 °F - 26.8 °F 78% 30.06 in 10.0 mi Calm Calm - N/A Rain Light Rain
6:35 AM 33.3 °F - 26.8 °F 77% 30.06 in 10.0 mi Calm Calm - N/A   Overcast
6:55 AM 33.8 °F - 27.1 °F 77% 30.07 in 10.0 mi Calm Calm - N/A   Overcast
7:15 AM 34.0 °F - 27.5 °F 77% 30.08 in 10.0 mi Calm Calm - N/A   Overcast
7:35 AM 34.3 °F - 27.3 °F 76% 30.08 in 10.0 mi Calm Calm - N/A   Overcast
7:55 AM 35.1 °F - 26.1 °F 70% 30.07 in 10.0 mi Calm Calm - N/A   Overcast
8:15 AM 35.8 °F - 26.6 °F 69% 30.07 in 10.0 mi Calm Calm - N/A   Overcast
8:30 AM 37.0 °F - 26.4 °F 65% 30.07 in 10.0 mi Calm Calm - N/A   Overcast
8:55 AM 39.9 °F - 26.2 °F 58% 30.07 in 10.0 mi Calm Calm - N/A   Overcast
9:15 AM 40.1 °F - 27.1 °F 60% 30.07 in 10.0 mi Calm Calm - N/A   Overcast
9:35 AM 42.3 °F 40.5 °F 26.4 °F 54% 30.07 in 10.0 mi East 3.5 mph - N/A   Overcast
9:55 AM 44.4 °F 42.9 °F 25.9 °F 48% 30.07 in 10.0 mi East 3.5 mph - N/A   Mostly Cloudy
10:15 AM 49.8 °F - 21.4 °F 33% 30.06 in 10.0 mi NNW 9.2 mph - N/A   Mostly Cloudy
10:35 AM 50.9 °F - 21.0 °F 31% 30.05 in 10.0 mi North 11.5 mph 19.6 mph N/A   Scattered Clouds
10:55 AM 50.4 °F - 20.8 °F 31% 30.06 in 10.0 mi NNW 11.5 mph 17.3 mph N/A   Scattered Clouds
11:15 AM 50.5 °F - 21.6 °F 32% 30.05 in 10.0 mi North 9.2 mph - N/A   Clear
11:35 AM 52.0 °F - 23.0 °F 32% 30.04 in 10.0 mi North 10.4 mph - N/A   Clear
12:15 PM 53.1 °F - 25.3 °F 34% 30.03 in 10.0 mi North 6.9 mph - N/A   Clear
12:35 PM 54.0 °F - 25.2 °F 33% 30.02 in 10.0 mi NNE 6.9 mph - N/A   Clear
12:55 PM 54.5 °F - 25.7 °F 33% 30.00 in 10.0 mi NW 5.8 mph - N/A   Clear
1:10 PM 54.9 °F - 25.3 °F 32% 29.99 in 10.0 mi North 9.2 mph - N/A   Clear
1:35 PM 55.2 °F - 24.8 °F 31% 29.98 in 10.0 mi North 4.6 mph 16.1 mph N/A   Clear
1:55 PM 56.1 °F - 24.8 °F 30% 29.97 in 10.0 mi NNW 6.9 mph - N/A   Clear
2:15 PM 56.1 °F - 24.6 °F 30% 29.96 in 10.0 mi NNE 6.9 mph - N/A   Clear
2:35 PM 56.3 °F - 24.3 °F 29% 29.95 in 10.0 mi NNE 6.9 mph - N/A   Clear
2:55 PM 56.3 °F - 24.8 °F 30% 29.94 in 10.0 mi NW 5.8 mph - N/A   Clear
3:15 PM 57.4 °F - 25.3 °F 29% 29.94 in 10.0 mi NW 5.8 mph - N/A   Clear
3:35 PM 56.7 °F - 24.6 °F 29% 29.94 in 10.0 mi North 8.1 mph - N/A   Clear
3:55 PM 57.0 °F - 25.0 °F 29% 29.94 in 10.0 mi NNW 4.6 mph - N/A   Clear
4:15 PM 56.5 °F - 23.5 °F 28% 29.94 in 10.0 mi NNW 5.8 mph - N/A   Clear
4:35 PM 55.0 °F - 22.3 °F 28% 29.94 in 10.0 mi NW 5.8 mph - N/A   Clear
4:55 PM 53.6 °F - 22.3 °F 30% 29.92 in 10.0 mi NNW 5.8 mph - N/A   Clear
5:15 PM 53.1 °F - 21.4 °F 29% 29.93 in 10.0 mi West 4.6 mph - N/A   Clear
5:35 PM 51.6 °F - 20.5 °F 29% 29.94 in 10.0 mi NW 8.1 mph - N/A   Clear
5:55 PM 50.9 °F - 20.3 °F 30% 29.94 in 10.0 mi WNW 4.6 mph - N/A   Clear
6:15 PM 50.0 °F - 19.8 °F 30% 29.95 in 10.0 mi WNW 9.2 mph - N/A   Clear
6:35 PM 48.2 °F - 19.4 °F 32% 29.96 in 10.0 mi WNW 3.5 mph - N/A   Clear
6:55 PM 47.7 °F - 18.3 °F 31% 29.97 in 10.0 mi WNW 5.8 mph - N/A   Clear
7:15 PM 46.4 °F 44.3 °F 18.9 °F 33% 29.98 in 10.0 mi NW 4.6 mph - N/A   Clear
7:35 PM 45.7 °F 43.4 °F 18.5 °F 34% 29.98 in 10.0 mi NNW 4.6 mph - N/A   Clear
7:55 PM 44.8 °F 41.6 °F 18.5 °F 35% 29.99 in 10.0 mi WNW 5.8 mph - N/A   Clear
8:15 PM 43.0 °F - 19.8 °F 40% 29.99 in 10.0 mi Calm Calm - N/A   Clear
8:35 PM 43.7 °F 39.7 °F 19.0 °F 37% 29.99 in 10.0 mi NNW 6.9 mph - N/A   Clear
8:55 PM 43.2 °F 39.0 °F 18.7 °F 38% 29.99 in 10.0 mi NNW 6.9 mph - N/A   Clear
9:15 PM 42.8 °F 39.3 °F 19.0 °F 39% 29.99 in 10.0 mi NW 5.8 mph - N/A   Clear
9:35 PM 41.5 °F 37.8 °F 19.9 °F 42% 29.99 in 10.0 mi WSW 5.8 mph - N/A   Clear
9:55 PM 38.3 °F 34.8 °F 21.9 °F 52% 29.99 in 10.0 mi WSW 4.6 mph - N/A   Clear
10:15 PM 34.5 °F 30.4 °F 23.7 °F 65% 29.99 in 10.0 mi WSW 4.6 mph - N/A   Clear
10:35 PM 34.5 °F 29.4 °F 23.4 °F 64% 29.98 in 10.0 mi WSW 5.8 mph - N/A   Clear
10:55 PM 34.7 °F - 22.8 °F 62% 29.98 in 10.0 mi Calm Calm - N/A   Clear
11:15 PM 32.4 °F - 23.7 °F 70% 29.97 in 10.0 mi Calm Calm - N/A   Clear
11:35 PM 32.0 °F - 24.1 °F 73% 29.97 in 10.0 mi Calm Calm - N/A   Clear
11:55 PM 30.9 °F - 24.4 °F 77% 29.95 in 10.0 mi Calm Calm - N/A   Clear